Regional Weather Roundup
Issued by NWS Green Bay, WI

Home | Current Version | Previous Version | Graphics & Text | Print | Product List | Glossary Off
Versions: 1 2 3 4 5 6 7 8 9 10 11 12 13 14 15 16 17 18 19 20 21 22 23 24 25 26 27 28 29 30 31 32 33 34 35 36 37 38 39 40 41 42 43 44 45 46 47 48 49 50

000
ASUS43 KGRB 030000
RWRGRB

NORTH-CENTRAL AND NORTHEAST WISCONSIN REGIONAL WEATHER ROUNDUP
NATIONAL WEATHER SERVICE GREEN BAY WI
700 PM CDT SUN AUG 02 2015

WIZ005-009-010>012-018-019-030100-
NORTH CENTRAL WISCONSIN

CITY           SKY/WX    TMP DP  RH WIND       PRES   REMARKS
IRONWOOD       PTSUNNY   68  57  68 W8        29.65R
MANITOWISH WTR NOT AVBL
ARBOR VITAE    NOT AVBL
EAGLE RIVER    NOT AVBL
LAND O LAKES   NOT AVBL
RHINELANDER    MOSUNNY   72  55  55 NW6       29.67R
PHILLIPS       PTSUNNY   71  58  64 NW5       29.68R
ANTIGO         NOT AVBL
TOMAHAWK       NOT AVBL
MERRILL        NOT AVBL
$$

WIZ013-073-030100-
NORTHEAST WISCONSIN

CITY           SKY/WX    TMP DP  RH WIND       PRES   REMARKS
IRON MOUNTAIN  MOSUNNY   73  53  49 NW14      29.61R
MARINETTE      CLOUDY    64  57  77 W5        29.60R
$$

WIZ017-030-035>037-045-030100-
CENTRAL WISCONSIN

CITY           SKY/WX    TMP DP  RH WIND       PRES   REMARKS
MEDFORD        NOT AVBL
WAUSAU         MOSUNNY   76  57  51 NW13G24   29.64R
MOSINEE        MOSUNNY   75  63  64 NW13G18   29.66R
MARSHFIELD     SUNNY     77  58  51 NW12      29.67R
WISC RAPIDS    SUNNY     80  58  46 NW15G24   29.67R
STEVENS POINT  NOT AVBL
WAUPACA        NOT AVBL
SHAWANO        NOT AVBL
CLINTONVILLE   PTSUNNY   70  63  78 SE5       29.63R
$$

WIZ038-039-048-051-030100-
FOX VALLEY

CITY           SKY/WX    TMP DP  RH WIND       PRES   REMARKS
NWS GREEN BAY  PTSUNNY   68  63  84 NW6       29.62R
APPLETON       PTSUNNY   70  57  64 N10       29.63R
OSHKOSH        PTSUNNY   73  62  68 N14       29.61R
FOND DU LAC    CLOUDY    73  63  70 NE16      29.63R
$$

WIZ022-050-052-030100-
EAST CENTRAL WISCONSIN

CITY           SKY/WX    TMP DP  RH WIND       PRES   REMARKS
STURGEON BAY   CLOUDY    63  59  88 NW5       29.63R
MANITOWOC      NOT AVBL
SHEBOYGAN      CLOUDY    66  64  93 VRB5      29.60S
$$

LMZ563-521-522-541>543-030100-
LAKESHORE

STATION/POSITION TIME  TEMP    WIND        PRES    VSBY  WAVE
                       AIR SEA DIR/SP/G                  HT/PER
                 (UTC) (F)     (DEG/KT/KT) (MB)    (MI)  (FT/S)
SHEBOYGAN LKSHOR 2300          110/  9/ 11 1002.4R
KEWAUNEE LKSHORE 2300   62      CALM  /  7 1000.8F
ALGOMA MARINA    2312          330/  6/  8   N/A
NORTHPORT PIER   2300   66      CALM  /  4 1002.0R
N MID LAKE BUOY  2250   68 68  190/  4/  6 1001.2R         1/ 5
S GREEN BAY BUOY 2300   64 70  300/  8/ 10 1003.5S
CHAMBERS ISLAND  2300   66     240/  2/  5 1002.4R
MENOMINEE LKSHOR 2300   64     250/  4/  5 1002.9R
$$


USA.gov is the U.S. government's official web portal to all federal, state and local government web resources and services.